FENGYUN 1C DEB, 32134

Orbit data source: Space-Track

FENGYUN 1C DEB, 32134 is space debris in SSO originally from a launch on Mon, 10 May 1999 UTC launched from the Taiyaun Space Center, China (TSC). Fengyun 1C debris stems from the Chinese weather satellite Fengyun-1C, which was intentionally destroyed by a Chinese anti-satellite missile in 2007. This event dramatically increased the amount of space debris, with thousands of trackable fragments posing hazards to satellites and human spaceflight. The Fengyun 1C debris cloud has become a focal point in discussions about space sustainability and the need for international regulations to prevent the creation of new debris.

Loading next visibility...
Identifier
32134, 1999-025CSC
Orbit
SSO
Country
Flag of CNCN / PRC
Related business
Manufacturer
Unknown
Mission
Spacecraft
Bus & Motor
Unknown
Mass
Unknown
Launch date (UTC)
1999-05-10 (27 years ago)
Launch vehicle
Unknown
Launch site
Taiyaun Space Center, China (TSC)
Object type
Payload
Rocket body
Debris
Shape & HBR
Unknown shape, 0.1 m
Radar Cross Section
Small (<0.1 m²)

Expand to show TLE details & history
Last TLE update: 1 week ago

TLE from 1 week ago
0 FENGYUN 1C DEB
1 32134U 99025CSC 26202.95711517  .00001650  00000-0  54463-3 0  9993
2 32134  98.5967 205.8525 0257217 341.5745  46.4170 14.22382224982910
Epoch: 2026-07-21T22:58Z
TLE epoch observation values (Epoch: 2026-07-21T22:58:14.750Z)
Latitude
29.85339°
Longitude
-83.37901°
Altitude
695.988 km
Speed
7.576 km/s
True Right ascension
13h 23m 36s
True Declination
29° 42' 14"
Sunlit
Object was in daylight at epoch
Visualization orbit readout
Latitude
Unknown
Longitude
Unknown
Altitude
Unknown
Speed
Unknown
Apparent Right ascension
Unknown
Apparent Declination
Unknown
Sunlit
N/A
Visualization observer readout
Local Sidereal Time
02:40:41
Azimuth
Unknown
Elevation
Unknown
Doppler factor
Unknown
Orbital elements
Apogee altitude
999.46 km
Perigee altitude
629.449 km
Semi-major axis
7,192.592 km
Eccentricity
0.02572
Inclination
98.5967°
RAAN
205.8525°
Arg. of periapsis
341.5745°
True anomaly
48.59992°
Mean anomaly
46.417°
Eccentric anomaly
47.50362°
Mean motion
3.55807 °/min
Orbital period
101.18 mins
BSTAR
0.00054463
Loading maneuver chart data...
Computing Atmospheric mass density...

Documentation

Showing up to 5 results
|